Des Moines, IA (50301)

9:06 PM CST on February 09, 2016 (GMT -0600)
Witmer Park | | Change Station
CLOSE
Current Station
Personal Weather Station
Location: Des Moines, IA
Elevation: 892 ft
Nearby Weather Stations

Elev 892 ft 41.61 °N, 93.66 °W | Updated 6 seconds ago

Clear
Clear
15.5 °F
Feels Like 15 °F
N
0.0
Wind Variable Wind from NE
Gusts 3.0 mph

Today
High -- | Low -- °F
--% Chance of Precip.
Yesterday
High -- | Low -- °F
Precip. -- in
Pressure 30.24 in
Visibility 10.0 miles
Clouds Clear
Windchill 15 °F
Dew Point 10 °F
Humidity 77%
Rainfall 0.00 in
Snow Depth Not available.
7:18 AM 5:39 PM
Waxing Crescent, 3% visible
METAR KDSM 100254Z 33008KT 10SM CLR M09/M14 A3018 RMK AO2 SLP239 T10891139 51004
Pressure 30.24 in
Visibility 10.0 miles
Clouds Clear
Windchill 15 °F
Dew Point 10 °F
Humidity 77%
Rainfall 0.00 in
Snow Depth Not available.
7:18 AM 5:39 PM
Waxing Crescent, 3% visible
METAR KDSM 100254Z 33008KT 10SM CLR M09/M14 A3018 RMK AO2 SLP239 T10891139 51004

10-Day Weather Forecast

Almanac

Astronomy

Feb. 09, 2016 Rise Set
Actual Time
Civil Twilight
Nautical Twilight
Astronomical Twilight
Moon
Length of Visible Light
Length of Day
Tomorrow will be .
, % of the Moon is Illuminated

Today's Extremes

State Highs State Lows

Community

WunderPhotos

Upload Photos

1,891,787 photos uploaded!

WunderBlog® & News

Nearby

Air Quality

  Air Quality AQ Index Pollutant
Not available.

Snow Depth

Station Depth Elevation

Earthquake Activity

City Distance Mag. Time & Date
Minimum magnitude displayed is 2.5.

Coastal Water Temperatures

Place Temperature

Stations

Nearby Weather Stations

Station Location Temp. Windchill Dew Point Humidity Wind Precip. Elev Updated Type
                   

Watches & Warnings

There are currently no watches in effect.